| time (UTC) | temp C | wind direction | speed KPH | gust KPH | rain 1hr cm | rain 24hr cm | rain mn cm | humidity % | barometer mb |
| 20260906232523 | 25 | 0 | 0.0 | 3.2 | 0.00 | 0.00 | 0.00 | 34 | 1023.0 |
| 20260906232018 | 25 | 0 | 0.0 | 3.2 | 0.00 | 0.00 | 0.00 | 33 | 1023.0 |
| 20260906231535 | 25 | 0 | 0.0 | 3.2 | 0.00 | 0.00 | 0.00 | 33 | 1023.0 |
| 20260906231019 | 25 | 0 | 0.0 | 3.2 | 0.00 | 0.00 | 0.00 | 36 | 1023.0 |
| 20260906230520 | 25 | 279 | 0.0 | 3.2 | 0.00 | 0.00 | 0.00 | 33 | 1023.1 |
| 20260906230036 | 25 | 0 | 0.0 | 3.2 | 0.00 | 0.00 | 0.00 | 33 | 1023.1 |
| 20260906225518 | 25 | 279 | 0.0 | 6.4 | 0.00 | 0.00 | 0.00 | 33 | 1023.2 |
| 20260906225023 | 25 | 279 | 1.6 | 6.4 | 0.00 | 0.00 | 0.00 | 34 | 1023.2 |
| 20260906224536 | 25 | 0 | 0.0 | 8.0 | 0.00 | 0.00 | 0.00 | 32 | 1023.3 |
| 20260906224020 | 25 | 0 | 0.0 | 8.0 | 0.00 | 0.00 | 0.00 | 33 | 1023.2 |
| 20260906223520 | 25 | 225 | 1.6 | 8.0 | 0.00 | 0.00 | 0.00 | 33 | 1023.4 |
| 20260906223036 | 25 | 271 | 1.6 | 4.8 | 0.00 | 0.00 | 0.00 | 35 | 1023.4 |
| 20260906222519 | 26 | 271 | 1.6 | 4.8 | 0.00 | 0.00 | 0.00 | 32 | 1023.4 |
| 20260906222021 | 26 | 271 | 1.6 | 3.2 | 0.00 | 0.00 | 0.00 | 32 | 1023.6 |
| 20260906221537 | 26 | 0 | 1.6 | 8.0 | 0.00 | 0.00 | 0.00 | 31 | 1023.6 |
| 20260906221021 | 26 | 271 | 1.6 | 9.7 | 0.00 | 0.00 | 0.00 | 31 | 1023.7 |
| 20260906220518 | 26 | 230 | 1.6 | 9.7 | 0.00 | 0.00 | 0.00 | 31 | 1023.8 |
| 20260906220036 | 26 | 269 | 3.2 | 12.9 | 0.00 | 0.00 | 0.00 | 30 | 1023.9 |
| 20260906215518 | 26 | 232 | 3.2 | 12.9 | 0.00 | 0.00 | 0.00 | 31 | 1023.9 |
| 20260906215017 | 26 | 213 | 1.6 | 4.8 | 0.00 | 0.00 | 0.00 | 31 | 1023.9 |
| 20260906214537 | 26 | 246 | 1.6 | 6.4 | 0.00 | 0.00 | 0.00 | 30 | 1023.9 |
| 20260906214017 | 26 | 234 | 0.0 | 6.4 | 0.00 | 0.00 | 0.00 | 32 | 1023.9 |
| 20260906213520 | 26 | 238 | 1.6 | 6.4 | 0.00 | 0.00 | 0.00 | 30 | 1024.0 |
| 20260906213035 | 26 | 209 | 1.6 | 9.7 | 0.00 | 0.00 | 0.00 | 29 | 1024.0 |
| 20260906212517 | 26 | 281 | 1.6 | 9.7 | 0.00 | 0.00 | 0.00 | 30 | 1023.9 |
| 20260906212020 | 26 | 281 | 3.2 | 11.3 | 0.00 | 0.00 | 0.00 | 30 | 1023.9 |
| 20260906211542 | 26 | 274 | 3.2 | 11.3 | 0.00 | 0.00 | 0.00 | 31 | 1024.0 |
| 20260906211017 | 26 | 269 | 1.6 | 6.4 | 0.00 | 0.00 | 0.00 | 30 | 1024.0 |
| 20260906210520 | 26 | 271 | 1.6 | 6.4 | 0.00 | 0.00 | 0.00 | 31 | 1024.0 |
| 20260906210036 | 26 | 279 | 3.2 | 4.8 | 0.00 | 0.00 | 0.00 | 31 | 1024.1 |
| 20260906205516 | 26 | 53 | 1.6 | 4.8 | 0.00 | 0.00 | 0.00 | 30 | 1024.0 |
| 20260906205020 | 26 | 246 | 1.6 | 4.8 | 0.00 | 0.00 | 0.00 | 29 | 1024.0 |
| 20260906204556 | 26 | 300 | 1.6 | 9.7 | 0.00 | 0.00 | 0.00 | 29 | 1023.9 |
| 20260906204016 | 26 | 282 | 3.2 | 9.7 | 0.00 | 0.00 | 0.00 | 29 | 1024.0 |
| 20260906203518 | 27 | 220 | 1.6 | 9.7 | 0.00 | 0.00 | 0.00 | 29 | 1024.1 |
| 20260906203035 | 27 | 257 | 1.6 | 6.4 | 0.00 | 0.00 | 0.00 | 29 | 1024.0 |
| 20260906202520 | 27 | 232 | 1.6 | 12.9 | 0.00 | 0.00 | 0.00 | 29 | 1024.0 |
| 20260906202018 | 27 | 272 | 1.6 | 12.9 | 0.00 | 0.00 | 0.00 | 29 | 1024.2 |
| 20260906201543 | 27 | 279 | 3.2 | 12.9 | 0.00 | 0.00 | 0.00 | 29 | 1024.1 |
| 20260906201019 | 27 | 270 | 1.6 | 12.9 | 0.00 | 0.00 | 0.00 | 29 | 1024.2 |
| 20260906200517 | 27 | 275 | 3.2 | 9.7 | 0.00 | 0.00 | 0.00 | 28 | 1024.2 |
| 20260906200035 | 26 | 31 | 1.6 | 8.0 | 0.00 | 0.00 | 0.00 | 29 | 1024.2 |
| 20260906195518 | 26 | 295 | 3.2 | 8.0 | 0.00 | 0.00 | 0.00 | 31 | 1024.3 |
| 20260906195019 | 26 | 281 | 1.6 | 8.0 | 0.00 | 0.00 | 0.00 | 33 | 1024.3 |
| 20260906194537 | 26 | 280 | 1.6 | 14.5 | 0.00 | 0.00 | 0.00 | 32 | 1024.4 |
| 20260906194017 | 26 | 310 | 3.2 | 12.9 | 0.00 | 0.00 | 0.00 | 33 | 1024.4 |
| 20260906193518 | 25 | 227 | 1.6 | 8.0 | 0.00 | 0.00 | 0.00 | 34 | 1024.6 |
| 20260906193037 | 25 | 323 | 1.6 | 11.3 | 0.00 | 0.00 | 0.00 | 34 | 1024.6 |
| 20260906192519 | 25 | 281 | 3.2 | 11.3 | 0.00 | 0.00 | 0.00 | 31 | 1024.6 |
| 20260906192018 | 25 | 333 | 4.8 | 9.7 | 0.00 | 0.00 | 0.00 | 33 | 1024.7 |
| 20260906191536 | 25 | 279 | 3.2 | 6.4 | 0.00 | 0.00 | 0.00 | 33 | 1024.8 |
| 20260906191018 | 25 | 285 | 1.6 | 11.3 | 0.00 | 0.00 | 0.00 | 34 | 1024.8 |
| 20260906190520 | 25 | 214 | 3.2 | 11.3 | 0.00 | 0.00 | 0.00 | 33 | 1025.0 |
| 20260906190042 | 25 | 281 | 4.8 | 19.3 | 0.00 | 0.00 | 0.00 | 33 | 1024.9 |
| 20260906185520 | 25 | 240 | 4.8 | 19.3 | 0.00 | 0.00 | 0.00 | 32 | 1025.0 |
| 20260906185020 | 25 | 277 | 8.0 | 17.7 | 0.00 | 0.00 | 0.00 | 31 | 1025.0 |
| 20260906184536 | 25 | 298 | 4.8 | 12.9 | 0.00 | 0.00 | 0.00 | 33 | 1025.1 |
| 20260906184019 | 25 | 0 | 1.6 | 6.4 | 0.00 | 0.00 | 0.00 | 31 | 1025.2 |
| 20260906183517 | 25 | 304 | 1.6 | 14.5 | 0.00 | 0.00 | 0.00 | 31 | 1025.2 |
| 20260906183037 | 25 | 265 | 1.6 | 14.5 | 0.00 | 0.00 | 0.00 | 29 | 1025.4 |
| 20260906182519 | 25 | 284 | 4.8 | 14.5 | 0.00 | 0.00 | 0.00 | 30 | 1025.3 |
| 20260906182019 | 25 | 284 | 1.6 | 11.3 | 0.00 | 0.00 | 0.00 | 32 | 1025.4 |
| 20260906181535 | 25 | 269 | 4.8 | 9.7 | 0.00 | 0.00 | 0.00 | 32 | 1025.5 |
| 20260906181016 | 25 | 330 | 1.6 | 8.0 | 0.00 | 0.00 | 0.00 | 33 | 1025.5 |
| 20260906180520 | 25 | 290 | 1.6 | 8.0 | 0.00 | 0.00 | 0.00 | 32 | 1025.7 |
| 20260906180055 | 25 | 275 | 3.2 | 11.3 | 0.00 | 0.00 | 0.00 | 34 | 1025.7 |
| 20260906175524 | 24 | 309 | 1.6 | 11.3 | 0.00 | 0.00 | 0.00 | 34 | 1025.8 |
| 20260906175019 | 24 | 281 | 1.6 | 11.3 | 0.00 | 0.00 | 0.00 | 30 | 1025.8 |
| 20260906174537 | 23 | 282 | 0.0 | 12.9 | 0.00 | 0.00 | 0.00 | 32 | 1025.8 |
| 20260906174018 | 23 | 0 | 3.2 | 12.9 | 0.00 | 0.00 | 0.00 | 32 | 1025.9 |
| 20260906173517 | 23 | 176 | 0.0 | 6.4 | 0.00 | 0.00 | 0.00 | 31 | 1026.0 |
| 20260906173036 | 23 | 269 | 0.0 | 6.4 | 0.00 | 0.00 | 0.00 | 32 | 1026.0 |
| 20260906172516 | 23 | 284 | 1.6 | 4.8 | 0.00 | 0.00 | 0.00 | 33 | 1026.1 |
| 20260906172016 | 23 | 0 | 0.0 | 11.3 | 0.00 | 0.00 | 0.00 | 32 | 1026.2 |
| 20260906171536 | 23 | 280 | 3.2 | 11.3 | 0.00 | 0.00 | 0.00 | 30 | 1026.2 |
| 20260906171019 | 23 | 227 | 0.0 | 3.2 | 0.00 | 0.00 | 0.00 | 29 | 1026.1 |
| 20260906170521 | 23 | 0 | 0.0 | 6.4 | 0.00 | 0.00 | 0.00 | 31 | 1026.1 |
| 20260906170042 | 23 | 267 | 0.0 | 6.4 | 0.00 | 0.00 | 0.00 | 30 | 1026.1 |
| 20260906165520 | 22 | 269 | 1.6 | 6.4 | 0.00 | 0.00 | 0.00 | 30 | 1026.1 |
| 20260906165019 | 22 | 269 | 0.0 | 6.4 | 0.00 | 0.00 | 0.00 | 30 | 1026.2 |
| 20260906164535 | 21 | 232 | 1.6 | 4.8 | 0.00 | 0.00 | 0.00 | 32 | 1026.3 |
| 20260906164019 | 21 | 242 | 1.6 | 4.8 | 0.00 | 0.00 | 0.00 | 34 | 1026.2 |
| 20260906163519 | 20 | 0 | 0.0 | 3.2 | 0.00 | 0.00 | 0.00 | 38 | 1026.2 |
| 20260906163042 | 20 | 0 | 0.0 | 3.2 | 0.00 | 0.00 | 0.00 | 34 | 1026.2 |
| 20260906162517 | 20 | 0 | 0.0 | 3.2 | 0.00 | 0.00 | 0.00 | 39 | 1026.2 |
| 20260906162018 | 19 | 11 | 0.0 | 3.2 | 0.00 | 0.00 | 0.00 | 41 | 1026.1 |
| 20260906161536 | 18 | 352 | 1.6 | 3.2 | 0.00 | 0.00 | 0.00 | 42 | 1026.2 |
| 20260906161018 | 18 | 0 | 0.0 | 3.2 | 0.00 | 0.00 | 0.00 | 48 | 1026.2 |
| 20260906160518 | 18 | 24 | 0.0 | 4.8 | 0.00 | 0.00 | 0.00 | 49 | 1026.4 |
| 20260906160039 | 17 | 24 | 0.0 | 4.8 | 0.00 | 0.00 | 0.00 | 46 | 1026.4 |
| 20260906155523 | 17 | 360 | 1.6 | 4.8 | 0.00 | 0.00 | 0.00 | 47 | 1026.4 |
| 20260906155017 | 16 | 20 | 1.6 | 3.2 | 0.00 | 0.00 | 0.00 | 51 | 1026.4 |
| 20260906154537 | 16 | 24 | 1.6 | 3.2 | 0.00 | 0.00 | 0.00 | 52 | 1026.4 |
| 20260906154020 | 15 | 24 | 0.0 | 3.2 | 0.00 | 0.00 | 0.00 | 57 | 1026.5 |
| 20260906153519 | 14 | 0 | 0.0 | 0.0 | 0.00 | 0.00 | 0.00 | 61 | 1026.5 |
| 20260906153035 | 13 | 0 | 0.0 | 0.0 | 0.00 | 0.00 | 0.00 | 61 | 1026.5 |
| 20260906152516 | 13 | 0 | 0.0 | 0.0 | 0.00 | 0.00 | 0.00 | 62 | 1026.5 |
| 20260906152017 | 13 | 0 | 0.0 | 0.0 | 0.00 | 0.00 | 0.00 | 60 | 1026.6 |
| 20260906151538 | 13 | 0 | 0.0 | 0.0 | 0.00 | 0.00 | 0.00 | 60 | 1026.6 |
| 20260906151018 | 13 | 0 | 0.0 | 3.2 | 0.00 | 0.00 | 0.00 | 59 | 1026.5 |
| 20260906150518 | 13 | 0 | 0.0 | 3.2 | 0.00 | 0.00 | 0.00 | 60 | 1026.4 |
| 20260906150035 | 13 | 69 | 0.0 | 1.6 | 0.00 | 0.00 | 0.00 | 58 | 1026.4 |
| 20260906145519 | 13 | 0 | 0.0 | 0.0 | 0.00 | 0.00 | 0.00 | 61 | 1026.4 |
| 20260906145018 | 13 | 0 | 0.0 | 1.6 | 0.00 | 0.00 | 0.00 | 59 | 1026.4 |
| 20260906144537 | 13 | 0 | 0.0 | 3.2 | 0.00 | 0.00 | 0.00 | 58 | 1026.4 |
| 20260906144018 | 13 | 0 | 0.0 | 3.2 | 0.00 | 0.00 | 0.00 | 56 | 1026.4 |
| 20260906143516 | 13 | 0 | 0.0 | 3.2 | 0.00 | 0.00 | 0.00 | 55 | 1026.4 |
| 20260906143037 | 13 | 0 | 0.0 | 3.2 | 0.00 | 0.00 | 0.00 | 56 | 1026.4 |
| 20260906142518 | 13 | 0 | 0.0 | 3.2 | 0.00 | 0.00 | 0.00 | 56 | 1026.4 |
| 20260906142020 | 13 | 69 | 0.0 | 3.2 | 0.00 | 0.00 | 0.00 | 56 | 1026.3 |
| 20260906141539 | 12 | 0 | 0.0 | 3.2 | 0.00 | 0.00 | 0.00 | 55 | 1026.2 |
| 20260906141018 | 12 | 0 | 0.0 | 3.2 | 0.00 | 0.00 | 0.00 | 57 | 1026.2 |
| 20260906140518 | 12 | 0 | 0.0 | 3.2 | 0.00 | 0.00 | 0.00 | 59 | 1026.3 |
| 20260906140036 | 11 | 69 | 1.6 | 3.2 | 0.00 | 0.00 | 0.00 | 58 | 1026.3 |
| 20260906135524 | 11 | 69 | 0.0 | 3.2 | 0.00 | 0.00 | 0.00 | 59 | 1026.5 |
| 20260906135022 | 11 | 69 | 0.0 | 3.2 | 0.00 | 0.00 | 0.00 | 61 | 1026.6 |
| 20260906134535 | 10 | 69 | 0.0 | 3.2 | 0.00 | 0.00 | 0.00 | 62 | 1026.5 |
| 20260906134021 | 10 | 69 | 0.0 | 3.2 | 0.00 | 0.00 | 0.00 | 65 | 1026.5 |
| 20260906133517 | 9 | 71 | 0.0 | 3.2 | 0.00 | 0.00 | 0.00 | 66 | 1026.5 |
| 20260906133036 | 8 | 71 | 0.0 | 3.2 | 0.00 | 0.00 | 0.00 | 68 | 1026.5 |
| 20260906132517 | 8 | 0 | 0.0 | 0.0 | 0.00 | 0.00 | 0.00 | 68 | 1026.4 |
| 20260906132019 | 8 | 0 | 0.0 | 0.0 | 0.00 | 0.00 | 0.00 | 69 | 1026.4 |
| 20260906131542 | 8 | 0 | 0.0 | 0.0 | 0.00 | 0.00 | 0.00 | 67 | 1026.4 |
| 20260906131020 | 8 | 0 | 0.0 | 0.0 | 0.00 | 0.00 | 0.00 | 67 | 1026.4 |
| 20260906130517 | 8 | 0 | 0.0 | 1.6 | 0.00 | 0.00 | 0.00 | 67 | 1026.2 |
| 20260906130036 | 8 | 0 | 0.0 | 1.6 | 0.00 | 0.00 | 0.00 | 67 | 1026.1 |
| 20260906125518 | 8 | 0 | 0.0 | 0.0 | 0.00 | 0.00 | 0.00 | 67 | 1026.1 |
| 20260906125019 | 8 | 0 | 0.0 | 0.0 | 0.00 | 0.00 | 0.00 | 66 | 1026.0 |
| 20260906124534 | 8 | 0 | 0.0 | 3.2 | 0.00 | 0.00 | 0.00 | 67 | 1025.9 |
| 20260906124019 | 8 | 0 | 0.0 | 3.2 | 0.00 | 0.00 | 0.00 | 66 | 1025.9 |
| 20260906123518 | 8 | 0 | 0.0 | 0.0 | 0.00 | 0.00 | 0.00 | 66 | 1025.9 |
| 20260906123034 | 8 | 0 | 0.0 | 0.0 | 0.00 | 0.00 | 0.00 | 66 | 1025.9 |
| 20260906122519 | 8 | 0 | 0.0 | 0.0 | 0.00 | 0.00 | 0.00 | 65 | 1025.9 |
| 20260906122018 | 8 | 0 | 0.0 | 0.0 | 0.00 | 0.00 | 0.00 | 65 | 1025.9 |
| 20260906121536 | 8 | 0 | 0.0 | 0.0 | 0.00 | 0.00 | 0.00 | 64 | 1025.8 |
| 20260906121019 | 8 | 0 | 0.0 | 0.0 | 0.00 | 0.00 | 0.00 | 65 | 1025.8 |
| 20260906120519 | 8 | 0 | 0.0 | 0.0 | 0.00 | 0.00 | 0.00 | 64 | 1025.7 |
| 20260906120036 | 8 | 0 | 0.0 | 0.0 | 0.00 | 0.00 | 0.00 | 64 | 1025.7 |
| 20260906115518 | 8 | 0 | 0.0 | 0.0 | 0.00 | 0.00 | 0.00 | 65 | 1025.7 |
| 20260906115018 | 8 | 0 | 0.0 | 3.2 | 0.00 | 0.00 | 0.00 | 66 | 1025.6 |
| 20260906114536 | 8 | 0 | 0.0 | 3.2 | 0.00 | 0.00 | 0.00 | 66 | 1025.6 |
| 20260906114020 | 8 | 0 | 0.0 | 0.0 | 0.00 | 0.00 | 0.00 | 66 | 1025.7 |
| 20260906113523 | 8 | 0 | 0.0 | 0.0 | 0.00 | 0.00 | 0.00 | 66 | 1025.5 |
| 20260906113043 | 8 | 0 | 0.0 | 0.0 | 0.00 | 0.00 | 0.00 | 66 | 1025.6 |
| 20260906112527 | 8 | 0 | 0.0 | 0.0 | 0.00 | 0.00 | 0.00 | 66 | 1025.6 |
| 20260906112020 | 8 | 0 | 0.0 | 0.0 | 0.00 | 0.00 | 0.00 | 66 | 1025.6 |
| 20260906111537 | 8 | 0 | 0.0 | 0.0 | 0.00 | 0.00 | 0.00 | 66 | 1025.7 |
| 20260906111016 | 8 | 0 | 0.0 | 0.0 | 0.00 | 0.00 | 0.00 | 65 | 1025.7 |
| 20260906110518 | 9 | 0 | 0.0 | 0.0 | 0.00 | 0.00 | 0.00 | 64 | 1025.6 |
| 20260906110034 | 9 | 0 | 0.0 | 0.0 | 0.00 | 0.00 | 0.00 | 65 | 1025.6 |
| 20260906105516 | 9 | 0 | 0.0 | 0.0 | 0.00 | 0.00 | 0.00 | 64 | 1025.5 |
| 20260906105016 | 9 | 0 | 0.0 | 3.2 | 0.00 | 0.00 | 0.00 | 65 | 1025.5 |
| 20260906104537 | 9 | 0 | 0.0 | 3.2 | 0.00 | 0.00 | 0.00 | 65 | 1025.4 |
| 20260906104018 | 9 | 0 | 0.0 | 3.2 | 0.00 | 0.00 | 0.00 | 65 | 1025.4 |
| 20260906103519 | 9 | 0 | 0.0 | 0.0 | 0.00 | 0.00 | 0.00 | 64 | 1025.4 |
| 20260906103035 | 9 | 0 | 0.0 | 3.2 | 0.00 | 0.00 | 0.00 | 65 | 1025.3 |
| 20260906102518 | 9 | 0 | 0.0 | 3.2 | 0.00 | 0.00 | 0.00 | 65 | 1025.3 |
| 20260906102019 | 9 | 0 | 0.0 | 3.2 | 0.00 | 0.00 | 0.00 | 65 | 1025.3 |
| 20260906101538 | 9 | 0 | 0.0 | 3.2 | 0.00 | 0.00 | 0.00 | 65 | 1025.3 |
| 20260906101019 | 9 | 0 | 0.0 | 3.2 | 0.00 | 0.00 | 0.00 | 65 | 1025.3 |
| 20260906100524 | 9 | 0 | 0.0 | 3.2 | 0.00 | 0.00 | 0.00 | 64 | 1025.3 |
| 20260906100034 | 9 | 0 | 0.0 | 0.0 | 0.00 | 0.00 | 0.00 | 64 | 1025.3 |
| 20260906095518 | 9 | 0 | 0.0 | 0.0 | 0.00 | 0.00 | 0.00 | 65 | 1025.4 |
| 20260906095016 | 9 | 0 | 0.0 | 0.0 | 0.00 | 0.00 | 0.00 | 64 | 1025.4 |
| 20260906094539 | 9 | 0 | 0.0 | 0.0 | 0.00 | 0.00 | 0.00 | 64 | 1025.4 |
| 20260906094018 | 9 | 0 | 0.0 | 3.2 | 0.00 | 0.00 | 0.00 | 65 | 1025.4 |
| 20260906093522 | 10 | 0 | 0.0 | 3.2 | 0.00 | 0.00 | 0.00 | 65 | 1025.4 |
| 20260906093040 | 10 | 0 | 0.0 | 3.2 | 0.00 | 0.00 | 0.00 | 65 | 1025.3 |
| 20260906092519 | 10 | 0 | 0.0 | 0.0 | 0.00 | 0.00 | 0.00 | 65 | 1025.3 |
| 20260906092019 | 10 | 0 | 0.0 | 0.0 | 0.00 | 0.00 | 0.00 | 65 | 1025.3 |
| 20260906091536 | 10 | 0 | 0.0 | 0.0 | 0.00 | 0.00 | 0.00 | 65 | 1025.4 |
| 20260906091018 | 10 | 0 | 0.0 | 1.6 | 0.00 | 0.00 | 0.00 | 65 | 1025.4 |
| 20260906090518 | 10 | 0 | 0.0 | 1.6 | 0.00 | 0.00 | 0.00 | 64 | 1025.4 |
| 20260906090036 | 10 | 0 | 0.0 | 0.0 | 0.00 | 0.00 | 0.00 | 65 | 1025.5 |
| 20260906085518 | 10 | 0 | 0.0 | 0.0 | 0.00 | 0.00 | 0.00 | 65 | 1025.5 |
| 20260906085017 | 10 | 0 | 0.0 | 0.0 | 0.00 | 0.00 | 0.00 | 65 | 1025.4 |
| 20260906084545 | 10 | 0 | 0.0 | 0.0 | 0.00 | 0.00 | 0.00 | 65 | 1025.5 |
| 20260906084020 | 10 | 0 | 0.0 | 0.0 | 0.00 | 0.00 | 0.00 | 65 | 1025.6 |
| 20260906083520 | 10 | 0 | 0.0 | 0.0 | 0.00 | 0.00 | 0.00 | 64 | 1025.7 |
| 20260906083039 | 10 | 0 | 0.0 | 0.0 | 0.00 | 0.00 | 0.00 | 64 | 1025.7 |
| 20260906082519 | 10 | 0 | 0.0 | 3.2 | 0.00 | 0.00 | 0.00 | 64 | 1025.7 |
| 20260906082022 | 10 | 0 | 0.0 | 3.2 | 0.00 | 0.00 | 0.00 | 64 | 1025.7 |
| 20260906081537 | 10 | 0 | 0.0 | 3.2 | 0.00 | 0.00 | 0.00 | 64 | 1025.8 |
| 20260906081019 | 10 | 0 | 0.0 | 1.6 | 0.00 | 0.00 | 0.00 | 64 | 1025.9 |
| 20260906080518 | 10 | 0 | 0.0 | 1.6 | 0.00 | 0.00 | 0.00 | 65 | 1025.9 |
| 20260906080036 | 10 | 0 | 0.0 | 3.2 | 0.00 | 0.00 | 0.00 | 64 | 1026.1 |
| 20260906075517 | 10 | 0 | 0.0 | 3.2 | 0.00 | 0.00 | 0.00 | 65 | 1026.0 |
| 20260906075016 | 10 | 0 | 0.0 | 3.2 | 0.00 | 0.00 | 0.00 | 64 | 1026.0 |
| 20260906074533 | 10 | 0 | 0.0 | 0.0 | 0.00 | 0.00 | 0.00 | 64 | 1026.0 |
| 20260906074020 | 10 | 0 | 0.0 | 0.0 | 0.00 | 0.00 | 0.00 | 64 | 1026.0 |
| 20260906073519 | 10 | 0 | 0.0 | 0.0 | 0.00 | 0.00 | 0.00 | 65 | 1026.0 |
| 20260906073041 | 10 | 0 | 0.0 | 1.6 | 0.00 | 0.00 | 0.00 | 64 | 1026.0 |
| 20260906072518 | 10 | 0 | 0.0 | 1.6 | 0.00 | 0.00 | 0.00 | 65 | 1026.1 |
| 20260906072018 | 10 | 0 | 0.0 | 0.0 | 0.00 | 0.00 | 0.00 | 65 | 1026.1 |
| 20260906071550 | 10 | 0 | 0.0 | 0.0 | 0.00 | 0.00 | 0.00 | 64 | 1026.0 |
| 20260906071019 | 10 | 0 | 0.0 | 0.0 | 0.00 | 0.00 | 0.00 | 64 | 1026.0 |
| 20260906070516 | 10 | 0 | 0.0 | 0.0 | 0.00 | 0.00 | 0.00 | 64 | 1026.1 |
| 20260906070035 | 10 | 0 | 0.0 | 0.0 | 0.00 | 0.00 | 0.00 | 64 | 1026.2 |
| 20260906065518 | 10 | 0 | 0.0 | 3.2 | 0.00 | 0.00 | 0.00 | 63 | 1026.1 |
| 20260906065020 | 10 | 0 | 0.0 | 3.2 | 0.00 | 0.00 | 0.00 | 64 | 1026.1 |
| 20260906064535 | 10 | 0 | 0.0 | 3.2 | 0.00 | 0.00 | 0.00 | 63 | 1026.1 |
| 20260906064018 | 10 | 71 | 0.0 | 3.2 | 0.00 | 0.00 | 0.00 | 64 | 1026.1 |
| 20260906063520 | 10 | 0 | 0.0 | 1.6 | 0.00 | 0.00 | 0.00 | 64 | 1026.1 |
| 20260906063033 | 10 | 0 | 0.0 | 0.0 | 0.00 | 0.00 | 0.00 | 64 | 1026.1 |
| 20260906062519 | 10 | 0 | 0.0 | 0.0 | 0.00 | 0.00 | 0.00 | 63 | 1026.1 |
| 20260906062018 | 10 | 0 | 0.0 | 0.0 | 0.00 | 0.00 | 0.00 | 64 | 1026.2 |
| 20260906061537 | 10 | 0 | 0.0 | 0.0 | 0.00 | 0.00 | 0.00 | 64 | 1026.3 |
| 20260906061017 | 10 | 0 | 0.0 | 0.0 | 0.00 | 0.00 | 0.00 | 63 | 1026.3 |
| 20260906060520 | 10 | 0 | 0.0 | 0.0 | 0.00 | 0.00 | 0.00 | 63 | 1026.3 |
| 20260906060036 | 10 | 0 | 0.0 | 0.0 | 0.00 | 0.00 | 0.00 | 63 | 1026.3 |
| 20260906055517 | 10 | 0 | 0.0 | 3.2 | 0.00 | 0.00 | 0.00 | 64 | 1026.3 |
| 20260906055017 | 10 | 0 | 0.0 | 3.2 | 0.00 | 0.00 | 0.00 | 63 | 1026.3 |
| 20260906054534 | 10 | 0 | 0.0 | 0.0 | 0.00 | 0.00 | 0.00 | 63 | 1026.4 |
| 20260906054018 | 10 | 0 | 0.0 | 3.2 | 0.00 | 0.00 | 0.00 | 62 | 1026.4 |
| 20260906053519 | 11 | 0 | 0.0 | 3.2 | 0.00 | 0.00 | 0.00 | 62 | 1026.4 |
| 20260906053034 | 10 | 0 | 0.0 | 3.2 | 0.00 | 0.00 | 0.00 | 62 | 1026.4 |
| 20260906052521 | 11 | 0 | 0.0 | 0.0 | 0.00 | 0.00 | 0.00 | 62 | 1026.4 |
| 20260906052021 | 11 | 0 | 0.0 | 0.0 | 0.00 | 0.00 | 0.00 | 61 | 1026.3 |
| 20260906051536 | 11 | 0 | 0.0 | 0.0 | 0.00 | 0.00 | 0.00 | 61 | 1026.3 |
| 20260906051020 | 11 | 0 | 0.0 | 0.0 | 0.00 | 0.00 | 0.00 | 60 | 1026.3 |
| 20260906050519 | 11 | 0 | 0.0 | 0.0 | 0.00 | 0.00 | 0.00 | 61 | 1026.4 |
| 20260906050036 | 11 | 0 | 0.0 | 0.0 | 0.00 | 0.00 | 0.00 | 60 | 1026.4 |
| 20260906045516 | 11 | 0 | 0.0 | 0.0 | 0.00 | 0.00 | 0.00 | 60 | 1026.4 |
| 20260906045016 | 11 | 0 | 0.0 | 0.0 | 0.00 | 0.00 | 0.00 | 60 | 1026.4 |
| 20260906044533 | 11 | 0 | 0.0 | 3.2 | 0.00 | 0.00 | 0.00 | 60 | 1026.4 |
| 20260906044016 | 11 | 0 | 0.0 | 3.2 | 0.00 | 0.00 | 0.00 | 60 | 1026.4 |
| 20260906043516 | 11 | 0 | 0.0 | 0.0 | 0.00 | 0.00 | 0.00 | 60 | 1026.4 |
| 20260906043034 | 11 | 0 | 0.0 | 0.0 | 0.00 | 0.00 | 0.00 | 59 | 1026.4 |
| 20260906042520 | 11 | 0 | 0.0 | 0.0 | 0.00 | 0.00 | 0.00 | 58 | 1026.4 |
| 20260906042018 | 12 | 0 | 0.0 | 0.0 | 0.00 | 0.00 | 0.00 | 55 | 1026.4 |
| 20260906041535 | 12 | 0 | 0.0 | 0.0 | 0.00 | 0.00 | 0.00 | 55 | 1026.4 |
| 20260906041022 | 12 | 0 | 0.0 | 0.0 | 0.00 | 0.00 | 0.00 | 55 | 1026.4 |
| 20260906040518 | 12 | 0 | 0.0 | 0.0 | 0.00 | 0.00 | 0.00 | 55 | 1026.4 |
| 20260906040038 | 12 | 0 | 0.0 | 0.0 | 0.00 | 0.00 | 0.00 | 54 | 1026.4 |
| 20260906035518 | 12 | 0 | 0.0 | 0.0 | 0.00 | 0.00 | 0.00 | 55 | 1026.3 |
| 20260906035019 | 12 | 0 | 0.0 | 0.0 | 0.00 | 0.00 | 0.00 | 54 | 1026.3 |
| 20260906034543 | 13 | 0 | 0.0 | 0.0 | 0.00 | 0.00 | 0.00 | 52 | 1026.2 |
| 20260906034017 | 13 | 0 | 0.0 | 0.0 | 0.00 | 0.00 | 0.00 | 50 | 1026.3 |
| 20260906033518 | 13 | 0 | 0.0 | 0.0 | 0.00 | 0.00 | 0.00 | 50 | 1026.1 |
| 20260906033035 | 13 | 0 | 0.0 | 0.0 | 0.00 | 0.00 | 0.00 | 49 | 1026.1 |
| 20260906032519 | 13 | 0 | 0.0 | 0.0 | 0.00 | 0.00 | 0.00 | 47 | 1026.1 |
| 20260906032019 | 14 | 0 | 0.0 | 0.0 | 0.00 | 0.00 | 0.00 | 47 | 1026.0 |
| 20260906031536 | 14 | 0 | 0.0 | 0.0 | 0.00 | 0.00 | 0.00 | 44 | 1025.9 |
| 20260906031016 | 15 | 0 | 0.0 | 0.0 | 0.00 | 0.00 | 0.00 | 46 | 1025.8 |
| 20260906030518 | 15 | 0 | 0.0 | 0.0 | 0.00 | 0.00 | 0.00 | 45 | 1025.7 |
| 20260906030036 | 15 | 0 | 0.0 | 3.2 | 0.00 | 0.00 | 0.00 | 45 | 1025.7 |
| 20260906025517 | 16 | 0 | 0.0 | 3.2 | 0.00 | 0.00 | 0.00 | 43 | 1025.7 |
| 20260906025020 | 16 | 0 | 0.0 | 3.2 | 0.00 | 0.00 | 0.00 | 44 | 1025.6 |
| 20260906024534 | 16 | 0 | 0.0 | 3.2 | 0.00 | 0.00 | 0.00 | 45 | 1025.6 |
| 20260906024018 | 17 | 71 | 0.0 | 3.2 | 0.00 | 0.00 | 0.00 | 42 | 1025.6 |
| 20260906023520 | 17 | 72 | 0.0 | 3.2 | 0.00 | 0.00 | 0.00 | 40 | 1025.5 |
| 20260906023036 | 17 | 0 | 0.0 | 3.2 | 0.00 | 0.00 | 0.00 | 39 | 1025.4 |
| 20260906022516 | 18 | 0 | 0.0 | 3.2 | 0.00 | 0.00 | 0.00 | 38 | 1025.3 |
| 20260906022016 | 18 | 0 | 0.0 | 1.6 | 0.00 | 0.00 | 0.00 | 38 | 1025.3 |
| 20260906021537 | 18 | 0 | 0.0 | 1.6 | 0.00 | 0.00 | 0.00 | 36 | 1025.2 |
| 20260906021016 | 19 | 0 | 0.0 | 1.6 | 0.00 | 0.00 | 0.00 | 36 | 1025.3 |
| 20260906020518 | 19 | 0 | 0.0 | 1.6 | 0.00 | 0.00 | 0.00 | 34 | 1025.1 |
| 20260906020039 | 20 | 0 | 0.0 | 0.0 | 0.00 | 0.00 | 0.00 | 33 | 1025.2 |
| 20260906015519 | 20 | 0 | 0.0 | 0.0 | 0.00 | 0.00 | 0.00 | 34 | 1025.2 |
| 20260906015019 | 21 | 0 | 0.0 | 0.0 | 0.00 | 0.00 | 0.00 | 31 | 1025.1 |
| 20260906014548 | 21 | 0 | 0.0 | 0.0 | 0.00 | 0.00 | 0.00 | 31 | 1025.1 |
| 20260906014023 | 21 | 0 | 0.0 | 3.2 | 0.00 | 0.00 | 0.00 | 30 | 1025.1 |
| 20260906013519 | 22 | 0 | 0.0 | 3.2 | 0.00 | 0.00 | 0.00 | 29 | 1025.1 |
| 20260906013035 | 22 | 192 | 0.0 | 3.2 | 0.00 | 0.00 | 0.00 | 29 | 1025.1 |
| 20260906012519 | 22 | 229 | 0.0 | 3.2 | 0.00 | 0.00 | 0.00 | 29 | 1025.1 |
| 20260906012017 | 22 | 244 | 1.6 | 6.4 | 0.00 | 0.00 | 0.00 | 29 | 1025.1 |
| 20260906011539 | 23 | 237 | 0.0 | 6.4 | 0.00 | 0.00 | 0.00 | 29 | 1025.1 |
| 20260906011017 | 23 | 246 | 1.6 | 6.4 | 0.00 | 0.00 | 0.00 | 28 | 1025.1 |
| 20260906010520 | 23 | 273 | 1.6 | 4.8 | 0.00 | 0.00 | 0.00 | 29 | 1025.1 |
| 20260906010034 | 23 | 273 | 1.6 | 3.2 | 0.00 | 0.00 | 0.00 | 27 | 1025.1 |
| 20260906005517 | 23 | 281 | 0.0 | 8.0 | 0.00 | 0.00 | 0.00 | 28 | 1025.1 |
| 20260906005023 | 24 | 281 | 1.6 | 8.0 | 0.00 | 0.00 | 0.00 | 28 | 1025.1 |
| 20260906004541 | 24 | 284 | 1.6 | 8.0 | 0.00 | 0.00 | 0.00 | 28 | 1025.2 |
| 20260906004016 | 24 | 276 | 1.6 | 9.7 | 0.00 | 0.00 | 0.00 | 28 | 1025.2 |
| 20260906003516 | 24 | 222 | 1.6 | 8.0 | 0.00 | 0.00 | 0.00 | 28 | 1025.1 |
| 20260906003047 | 24 | 271 | 1.6 | 6.4 | 0.00 | 0.00 | 0.00 | 28 | 1025.0 |
| 20260906002517 | 25 | 281 | 1.6 | 6.4 | 0.00 | 0.00 | 0.00 | 29 | 1025.1 |
| 20260906002018 | 25 | 273 | 1.6 | 6.4 | 0.00 | 0.00 | 0.00 | 28 | 1025.1 |
| 20260906001533 | 25 | 251 | 1.6 | 4.8 | 0.00 | 0.00 | 0.00 | 29 | 1025.2 |
| 20260906001019 | 25 | 271 | 1.6 | 11.3 | 0.00 | 0.00 | 0.00 | 28 | 1025.1 |
| 20260906000523 | 25 | 248 | 3.2 | 11.3 | 0.00 | 0.00 | 0.00 | 28 | 1025.0 |
| 20260906000035 | 25 | 277 | 1.6 | 9.7 | 0.00 | 0.00 | 0.00 | 28 | 1025.0 |
| 20260905235519 | 25 | 238 | 1.6 | 6.4 | 0.00 | 0.00 | 0.00 | 28 | 1025.0 |
| 20260905235018 | 25 | 281 | 1.6 | 6.4 | 0.00 | 0.00 | 0.00 | 29 | 1025.0 |
| 20260905234536 | 25 | 283 | 3.2 | 6.4 | 0.00 | 0.00 | 0.00 | 29 | 1025.0 |
| 20260905234023 | 26 | 254 | 1.6 | 6.4 | 0.00 | 0.00 | 0.00 | 28 | 1025.0 |
| 20260905233518 | 26 | 250 | 1.6 | 9.7 | 0.00 | 0.00 | 0.00 | 28 | 1025.0 |
| 20260905233033 | 26 | 267 | 3.2 | 9.7 | 0.00 | 0.00 | 0.00 | 29 | 1025.0 |